User: anonymous   Login
Location: Unspecified
(0.0000°N, 0.0000°E)
Time: 12:24:31
(UTC+02:00)
Language:

NATO 3D Rocket - Orbit

View from above orbital plane
View from above orbital plane
View from above satellite
View from above satellite

Ground track
Ground track

The orbit data is extracted from the following two-line orbital elements,

1 15392U 84115B   16269.89591826 +.00000103 +00000-0 -40198-4 0  9992
2 15392 021.4922 078.8213 1034615 024.7174 339.9433 12.45534710433248
Epoch (UTC): 25 September 2016 21:30:07
Eccentricity: 0.1034615
inclination: 21.4922°
perigee height: 670 km
apogee height: 2296 km
right ascension of ascending node: 78.8213°
argument of perigee: 24.7174°
revolutions per day: 12.45534710
mean anomaly at epoch: 339.9433°
orbit number at epoch: 43324

The dashed part of the orbit path shows where the satellite is in the earth's shadow,  

DLR